Date String (YYYY-MM-DD hh:mm:ss) UTC,Instrument flags,absolute air pressure of the measurement (hPa),sample flow rate (lpm),inlet stack bypass flow (lpm),air temperature of the measurement (°C),ambient temperature measured by the external sensor (°C),aerosol sample conditioner tube jacket temperature (°C),OPC LED temperature (°C),internal box temperature (°C),relative humidity of the measurement (%),span deviation,mass concentration of particles derived from Lorenz-Mie calculation of OPC scattering (μg/m³),mass concentration of particles derived from Lorenz-Mie calculation of OPC scattering (μg/m³),mass concentration of particles derived from Lorenz-Mie calculation of OPC scattering (μg/m³)
DateTimeUTC,F1_M11,P_M11,Q1_M11,Q2_M11,T1_M11,T2_M11,T3_M11,T4_M11,T5_M11,U1_M11,ZSPAN_M11,X0_M11,X2_M11,X1_M11
2023-08-03 12:00:00,SystemResetWarning,0833.7,5.00,000.00,031.3,028.6,000.0,039.6,031.9,34.9,0000.0,0008.33,0004.96,0004.44
2023-08-03 12:01:00,SystemResetWarning,0833.7,5.00,000.00,031.3,028.6,000.0,039.6,031.9,34.9,0000.0,0008.31,0004.95,0004.43
2023-08-03 12:02:00,SystemResetWarning,0833.7,4.98,000.00,031.3,028.6,000.0,039.6,031.9,35.0,0000.0,0008.27,0004.93,0004.42
2023-08-03 12:03:00,SystemResetWarning,0833.7,5.04,000.00,031.3,028.7,000.0,039.6,032.0,34.8,0000.0,0008.21,0004.91,0004.41
2023-08-03 12:04:00,SystemResetWarning,0833.8,4.96,000.00,031.4,028.7,000.0,039.6,032.0,34.4,0000.0,0008.04,0004.85,0004.39
2023-08-03 12:05:00,SystemResetWarning,0833.8,5.02,000.00,031.5,028.6,000.0,039.6,032.0,34.2,0000.0,0007.98,0004.82,0004.38
2023-08-03 12:06:00,SystemResetWarning,0833.7,5.00,000.00,031.5,027.1,000.0,039.4,031.9,34.1,0000.0,0007.91,0004.78,0004.37
2023-08-03 12:07:00,SystemResetWarning,0833.7,4.99,000.00,031.5,025.8,000.0,039.3,031.6,33.8,0000.0,0007.68,0004.74,0004.36
2023-08-03 12:08:00,SystemResetWarning,0833.7,5.02,000.00,031.3,025.5,000.0,039.3,031.3,33.6,0000.0,0007.84,0004.74,0004.34
2023-08-03 12:09:00,SystemResetWarning,0833.7,5.00,000.00,031.2,025.8,000.0,039.3,031.2,33.2,0000.0,0007.68,0004.70,0004.33
2023-08-03 12:10:00,SystemResetWarning,0833.6,4.99,000.00,031.0,026.2,000.0,039.3,031.2,33.1,0000.0,0007.59,0004.68,0004.34
2023-08-03 12:11:00,SystemResetWarning,0833.6,5.01,000.00,031.0,026.6,000.0,039.3,031.3,33.0,0000.0,0007.64,0004.70,0004.34
2023-08-03 12:12:00,SystemResetWarning,0833.6,5.00,000.00,030.9,026.9,000.0,039.3,031.3,32.9,0000.0,0007.66,0004.71,0004.34
2023-08-03 12:13:00,SystemResetWarning,0833.5,5.00,000.00,030.9,027.2,000.0,039.3,031.4,32.9,0000.0,0007.79,0004.72,0004.35
2023-08-03 12:14:00,SystemResetWarning,0833.4,5.00,000.00,030.9,027.4,000.0,039.3,031.4,32.9,0000.0,0007.90,0004.74,0004.37
2023-08-03 12:15:00,SystemResetWarning,0833.4,5.00,000.00,030.8,027.6,000.0,039.3,031.4,32.8,0000.0,0008.06,0004.80,0004.38
2023-08-03 12:16:00,SystemResetWarning,0833.4,5.00,000.00,030.8,027.8,000.0,039.2,031.4,32.8,0000.0,0008.14,0004.83,0004.38
2023-08-03 12:17:00,SystemResetWarning,0833.4,5.00,000.00,030.8,027.9,000.0,039.2,031.5,32.8,0000.0,0008.17,0004.86,0004.39
2023-08-03 12:18:00,SystemResetWarning,0833.4,5.01,000.00,030.8,028.0,000.0,039.2,031.5,32.7,0000.0,0008.23,0004.92,0004.41
2023-08-03 12:19:00,SystemResetWarning,0833.4,5.00,000.00,030.8,028.1,000.0,039.2,031.5,32.7,0000.0,0008.07,0004.96,0004.43
2023-08-03 12:20:00,SystemResetWarning,0833.4,5.00,000.00,030.7,028.2,000.0,039.2,031.5,32.7,0000.0,0008.16,0005.00,0004.44
2023-08-03 12:21:00,SystemResetWarning,0833.4,5.00,000.00,030.7,028.3,000.0,039.1,031.5,32.6,0000.0,0008.15,0005.00,0004.43
2023-08-03 12:22:00,SystemResetWarning,0833.4,5.00,000.00,030.7,028.3,000.0,039.1,031.5,32.5,0000.0,0008.06,0004.98,0004.44
2023-08-03 12:23:00,SystemResetWarning,0833.4,4.99,000.00,030.7,028.4,000.0,039.1,031.6,32.6,0000.0,0008.04,0004.96,0004.44
2023-08-03 12:24:00,SystemResetWarning,0833.4,5.00,000.00,030.7,028.4,000.0,039.1,031.6,32.7,0000.0,0007.94,0004.96,0004.43
2023-08-03 12:25:00,SystemResetWarning,0833.4,5.00,000.00,030.7,028.4,000.0,039.1,031.6,32.8,0000.0,0007.85,0004.94,0004.43
2023-08-03 12:26:00,SystemResetWarning,0833.4,5.00,000.00,030.7,028.5,000.0,039.1,031.6,32.9,0000.0,0007.82,0004.92,0004.43
2023-08-03 12:27:00,SystemResetWarning,0833.4,5.01,000.00,030.7,028.5,000.0,039.1,031.7,32.7,0000.0,0007.77,0004.90,0004.41
2023-08-03 12:28:00,SystemResetWarning,0833.4,5.00,000.00,030.7,028.5,000.0,039.1,031.7,32.3,0000.0,0007.78,0004.88,0004.38
2023-08-03 12:29:00,SystemResetWarning,0833.4,5.00,000.00,030.6,028.6,000.0,039.1,031.7,32.0,0000.0,0007.84,0004.82,0004.35
2023-08-03 12:30:00,SystemResetWarning,0833.4,5.00,000.00,030.6,028.6,000.0,039.1,031.7,31.9,0000.0,0007.68,0004.73,0004.29
2023-08-03 12:31:00,SystemResetWarning,0833.4,5.01,000.00,030.6,028.6,000.0,039.1,031.7,31.9,0000.0,0007.59,0004.67,0004.24
2023-08-03 12:32:00,SystemResetWarning,0833.4,5.00,000.00,030.6,028.6,000.0,039.0,031.7,31.9,0000.0,0007.47,0004.60,0004.18
2023-08-03 12:33:00,SystemResetWarning,0833.4,5.00,000.00,030.6,028.6,000.0,039.0,031.7,32.0,0000.0,0007.84,0004.54,0004.12
2023-08-03 12:34:00,SystemResetWarning,0833.4,5.00,000.00,030.6,028.6,000.0,039.0,031.7,31.7,0000.0,0008.06,0004.49,0004.08
2023-08-03 12:35:00,SystemResetWarning,0833.4,5.00,000.00,030.6,028.7,000.0,039.0,031.7,31.6,0000.0,0008.02,0004.44,0004.02
2023-08-03 12:36:00,SystemResetWarning,0833.4,5.00,000.00,030.6,028.7,000.0,039.0,031.7,31.5,0000.0,0008.02,0004.41,0003.97
2023-08-03 12:37:00,SystemResetWarning,0833.4,5.00,000.00,030.6,028.7,000.0,039.0,031.7,31.7,0000.0,0007.93,0004.35,0003.92
2023-08-03 12:38:00,SystemResetWarning,0833.4,4.99,000.00,030.6,028.1,000.0,039.0,031.7,31.7,0000.0,0007.97,0004.33,0003.90
2023-08-03 12:39:00,SystemResetWarning,0833.3,5.01,000.00,030.6,026.4,000.0,038.8,031.5,31.5,0000.0,0007.91,0004.29,0003.89
2023-08-03 12:40:00,SystemResetWarning,0833.3,5.00,000.00,030.5,025.7,000.0,038.7,031.3,31.9,0000.0,0007.74,0004.26,0003.88
2023-08-03 12:41:00,SystemResetWarning,0833.3,5.00,000.00,030.3,025.8,000.0,038.7,031.0,31.9,0000.0,0007.60,0004.24,0003.88
2023-08-03 12:42:00,SystemResetWarning,0833.2,5.01,000.00,030.2,026.1,000.0,038.7,031.0,31.9,0000.0,0007.60,0004.24,0003.88
2023-08-03 12:43:00,SystemResetWarning,0833.3,5.00,000.00,030.1,026.5,000.0,038.7,031.1,32.0,0000.0,0007.63,0004.25,0003.89
2023-08-03 12:44:00,SystemResetWarning,0833.2,4.99,000.00,030.1,026.8,000.0,038.7,031.1,32.3,0000.0,0007.44,0004.31,0003.91
2023-08-03 12:45:00,SystemResetWarning,0833.3,5.00,000.00,030.1,027.2,000.0,038.7,031.2,32.2,0000.0,0006.99,0004.31,0003.90
2023-08-03 12:46:00,SystemResetWarning,0833.2,5.01,000.00,030.1,027.4,000.0,038.7,031.2,32.1,0000.0,0007.22,0004.33,0003.91
2023-08-03 12:47:00,SystemResetWarning,0833.3,5.01,000.00,030.1,027.6,000.0,038.6,031.2,31.8,0000.0,0007.27,0004.33,0003.91
2023-08-03 12:48:00,SystemResetWarning,0833.3,5.01,000.00,030.0,027.8,000.0,038.6,031.2,32.0,0000.0,0007.17,0004.30,0003.90
2023-08-03 12:49:00,SystemResetWarning,0833.3,4.99,000.00,030.0,027.9,000.0,038.6,031.3,32.7,0000.0,0006.95,0004.27,0003.88
2023-08-03 12:50:00,SystemResetWarning,0833.3,5.00,000.00,030.0,028.0,000.0,038.6,031.3,32.3,0000.0,0006.85,0004.25,0003.87
2023-08-03 12:51:00,SystemResetWarning,0833.3,5.00,000.00,030.0,028.1,000.0,038.6,031.3,32.4,0000.0,0006.83,0004.25,0003.85
2023-08-03 12:52:00,SystemResetWarning,0833.3,5.00,000.00,030.0,028.2,000.0,038.6,031.3,32.2,0000.0,0006.77,0004.23,0003.84
2023-08-03 12:53:00,SystemResetWarning,0833.3,5.00,000.00,030.1,028.3,000.0,038.6,031.4,32.2,0000.0,0007.27,0004.21,0003.82
2023-08-03 12:54:00,SystemResetWarning,0833.3,5.00,000.00,030.1,028.3,000.0,038.6,031.4,32.5,0000.0,0007.33,0004.21,0003.82
2023-08-03 12:55:00,SystemResetWarning,0833.3,5.01,000.00,030.1,028.4,000.0,038.6,031.4,32.4,0000.0,0007.29,0004.17,0003.79
2023-08-03 12:56:00,SystemResetWarning,0833.3,5.00,000.00,030.1,028.4,000.0,038.6,031.4,32.5,0000.0,0007.41,0004.16,0003.78
2023-08-03 12:57:00,SystemResetWarning,0833.3,5.00,000.00,030.1,028.5,000.0,038.6,031.5,32.5,0000.0,0007.54,0004.13,0003.76
2023-08-03 12:58:00,SystemResetWarning,0833.4,5.00,000.00,030.1,028.5,000.0,038.6,031.5,32.4,0000.0,0007.39,0004.08,0003.74
2023-08-03 12:59:00,SystemResetWarning,0833.3,5.00,000.00,030.1,028.6,000.0,038.6,031.5,32.6,0000.0,0007.43,0004.09,0003.72
